This demonstration page uses our WeatherBlox Daily Observations layout. Learn more.

Left ArrowRight Arrow

Hourly Observations for March 27, 2016

Temp ( °F °C ) Dew Point ( °F °C ) Humidity (%) Winds ( mph kmh ) Pressure ( in mb ) Visibility ( mi km ) Precip ( " mm )
12:53 am 00:53 Clear 45 7.2 37 2.8 74 74 N N/A 30.14 1021 10 16 N/A
1:53 am 01:53 Clear 40 4.4 36 2.2 86 86 N N/A 30.14 1021 10 16 N/A
2:53 am 02:53 Clear 42 5.6 39 3.9 89 89 N N/A 30.13 1020 10 16 N/A
3:53 am 03:53 Clear 39 3.9 35 1.7 86 86 N N/A 30.12 1020 10 16 N/A
4:53 am 04:53 Clear 38 3.3 36 2.2 93 93 N N/A 30.12 1020 10 16 N/A
5:53 am 05:53 Clear 37 2.8 35 1.7 93 93 N N/A 30.10 1019 10 16 N/A
6:53 am 06:53 Clear 37 2.8 34 1.1 89 89 N N/A 30.10 1019 10 16 N/A
7:53 am 07:53 Sunny 38 3.3 36 2.2 93 93 N N/A 30.10 1019 7 11 N/A
8:53 am 08:53 Sunny 42 5.6 39 3.9 89 89 N N/A 30.10 1019 7 11 N/A
9:53 am 09:53 Sunny 51 10.6 42 5.6 71 71 E 3 6 30.09 1019 10 16 N/A
10:53 am 10:53 Sunny 59 15 46 7.8 62 62 E 6 9 30.08 1019 10 16 N/A
11:53 am 11:53 Sunny 65 18.3 51 10.6 61 61 ESE 3 6 30.04 1017 10 16 N/A
12:53 pm 12:53 Sunny 71 21.7 56 13.3 59 59 SSW 8 13 29.99 1016 10 16 N/A
1:53 pm 13:53 Mostly Sunny 75 23.9 57 13.9 54 54 SSW 8 13 29.96 1015 10 16 N/A
2:53 pm 14:53 Partly Cloudy 76 24.4 56 13.3 50 50 SSW 10 17 29.92 1013 10 16 N/A
3:53 pm 15:53 Partly Cloudy 78 25.6 55 12.8 45 45 SSW 9 15 29.88 1012 10 16 N/A
4:53 pm 16:53 Mostly Cloudy 76 24.4 55 12.8 48 48 S 10 17 29.85 1011 10 16 N/A
5:53 pm 17:53 Partly Cloudy 76 24.4 56 13.3 50 50 S 12 19 29.82 1010 10 16 N/A
6:53 pm 18:53 Mostly Cloudy 73 22.8 56 13.3 55 55 S 9 15 29.79 1009 10 16 N/A
7:53 pm 19:53 Sunny 71 21.7 56 13.3 59 59 S 6 9 29.77 1008 10 16 N/A
8:53 pm 20:53 Clear 69 20.6 56 13.3 63 63 S 9 15 29.71 1006 10 16 N/A
9:53 pm 21:53 Mostly Clear 69 20.6 56 13.3 63 63 S 9 15 29.72 1006 10 16 N/A
10:53 pm 22:53 Cloudy with Rain 64 17.8 58 14.4 81 81 SW 14 22 29.75 1007 6 10 0.04 1.02
11:15 pm 23:15 Cloudy with Light Rain 59 15 54 12.2 83 83 W 13 20 29.77 1008 8 13 0.04 1.02
11:33 pm 23:33 Cloudy with Nearby Thunderstorms 57 13.9 54 12.2 90 90 W 15 24 29.77 1008 4 6 0.11 2.79
11:42 pm 23:42 Cloudy with Rain 55 12.8 54 12.2 96 96 WNW 22 35 29.77 1008 5 8 0.14 3.56
11:53 pm 23:53 Cloudy with Rain 54 12.2 51 10.6 90 90 WNW 20 31 29.80 1009 4 6 0.18 4.57

Powered by AerisWeather